Location: Montbazon
(47.2835°N, 0.6999°E)
Time: 02:05:40
(UTC+00:00)

Cosmos 2123 Rocket - Pass Details

Date: 08 November 2025
Orbit: 960 x 991 km, 82.9° (Epoch: 13 December)

Event Time Altitude Azimuth Distance (km) Brightness Sun altitude
Rises 05:34:26 0° 208° (SSW) 3,661 6.8 -13.2°
Reaches altitude 10° 05:37:05 10° 215° (SW) 2,713 6.1 -12.8°
Maximum altitude 05:42:58 43° 286° (WNW) 1,330 4.3 -11.8°
Drops below altitude 10° 05:48:51 10° 358° (N) 2,713 6.2 -10.8°
Sets 05:51:31 0° 5° (N) 3,661 6.9 -10.4°
